Back to catalog

STARLINK-2476

AliveCommunicationsVLEO
NORAD 48134·PAYLOAD·🇺🇸 United States

Launched Apr 7, 2021 from Cape Canaveral Space Force Station

Loading…

Next Passes (next 24 hours)

TLE

FreshSource: CelesTrak SupGP

Epoch: Sep 14, 2026, 21:50 UTC

1 48134C 21027AU  26257.91020833 -.00026066  00000+0 -83846-3 0  2570
2 48134  53.1603   4.6596 0001065  63.8521 276.1417 15.31705934    14

Track STARLINK-2476 in real time with AllMySat

Download on the App Store